Location: Bastogne Gables
(35.1554°N, 78.9900°W)
Time: 01:59:15
(UTC+00:00)

Cosmos 968 Rocket - Pass Details

Date: 29 October 2020
Orbit: 741 x 770 km, 74.0° (Epoch: 26 November)

Event Time Altitude Azimuth Distance (km) Brightness Sun altitude
Rises 23:19:30 0° 348° (NNW) 3,227 6.8 -11.9°
Reaches altitude 10° 23:21:57 10° 353° (N) 2,293 6.0 -12.4°
Maximum altitude 23:27:02 53° 70° (ENE) 923 3.6 -13.4°
Drops below altitude 10° 23:32:02 10° 147° (SSE) 2,260 5.7 -14.5°
Sets 23:34:25 0° 152° (SSE) 3,176 6.5 -14.9°
